Weather History for Defiance, OH

Change the Weather History Date:

Friday, August 9, 2013

  Actual Average Record
Temperature  
Mean Temperature 74 °F -  
Max Temperature 82 °F 84 °F 95 °F (1944)
Min Temperature 66 °F 60 °F 44 °F (1964)
Cooling Degree Days 9    
Growing Degree Days 24 (Base 50)    
Moisture  
Dew Point 61 °F    
Average Humidity 71    
Maximum Humidity 90    
Minimum Humidity 44    
Precipitation  
Precipitation 0.00 in - - ()
Sea Level Pressure  
Sea Level Pressure 29.98 in    
Wind  
Wind Speed 2 mph (NNE)    
Max Wind Speed 7 mph    
Max Gust Speed -    
Visibility 9 miles    
Events      
Averages and records for this station are not official NWS values.
T = Trace of Precipitation, MM = Missing Value Source: NWS Daily Summary

Daily Weather History Graph

Daily Weather History Graph

Search for Another Location

Airport:

Trip Planner

Search our weather history database for the weather conditions in past years. The results will help you decide how hot, cold, wet, or windy it might be!

Date:

Astronomy

Aug. 09, 2013 Rise Set
Actual Time 6:41 AM EDT 8:44 PM EDT
Civil Twilight 6:10 AM EDT 9:14 PM EDT
Nautical Twilight 5:33 AM EDT 9:51 PM EDT
Astronomical Twilight 4:53 AM EDT 10:31 PM EDT
Moon 9:28 AM EDT (8/9) 9:50 PM EDT (8/9)
Length of Visible Light 15h 04m
Length of Day
14h 03m
Waxing Crescent, 7% of the Moon is Illuminated
Aug 9
Waxing Crescent
Aug 14
First Quarter
Aug 20
Full
Aug 28
Last Quarter
Sep 5
New

Hourly Weather History & Observations

Time (EDT) Temp. Heat Index Dew Point Humidity Pressure Visibility Wind Dir Wind Speed Gust Speed Precip Events Conditions
12:53 AM 70.0 °F - 66.0 °F 87% 29.96 in 6.0 mi Calm Calm - N/A   Overcast
1:48 AM 69.8 °F - 66.2 °F 88% 29.97 in 6.0 mi ENE 3.5 mph - 0.00 in   Overcast
1:53 AM 70.0 °F - 64.9 °F 84% 29.96 in 7.0 mi ENE 4.6 mph - 0.00 in   Overcast
2:13 AM 69.8 °F - 66.2 °F 88% 29.98 in 7.0 mi Calm Calm - N/A   Overcast
2:53 AM 69.1 °F - 66.0 °F 90% 29.95 in 5.0 mi Calm Calm - 0.00 in   Overcast
3:32 AM 69.8 °F - 66.2 °F 88% 29.96 in 6.0 mi NNE 3.5 mph - N/A   Overcast
3:50 AM 69.8 °F - 64.4 °F 83% 29.96 in 6.0 mi NE 5.8 mph - N/A   Overcast
3:53 AM 69.1 °F - 64.9 °F 87% 29.95 in 7.0 mi NE 5.8 mph - N/A   Overcast
4:15 AM 68.0 °F - 62.6 °F 83% 29.95 in 10.0 mi NE 3.5 mph - N/A   Overcast
4:53 AM 66.9 °F - 60.1 °F 79% 29.96 in 10.0 mi NNE 3.5 mph - 0.00 in   Mostly Cloudy
5:53 AM 66.9 °F - 60.1 °F 79% 29.96 in 10.0 mi Calm Calm - N/A   Overcast
6:46 AM 66.2 °F - 60.8 °F 83% 29.98 in 10.0 mi North 3.5 mph - N/A   Overcast
6:53 AM 66.0 °F - 61.0 °F 84% 29.97 in 10.0 mi North 3.5 mph - N/A   Overcast
7:12 AM 66.2 °F - 60.8 °F 83% 29.98 in 10.0 mi Calm Calm - N/A   Mostly Cloudy
7:53 AM 66.0 °F - 61.0 °F 84% 29.98 in 10.0 mi Calm Calm - N/A   Clear
8:53 AM 70.0 °F - 59.0 °F 68% 29.99 in 10.0 mi NNE 5.8 mph - N/A   Clear
9:53 AM 71.1 °F - 55.0 °F 57% 29.99 in 10.0 mi NNE 3.5 mph - N/A   Clear
10:53 AM 72.0 °F - 52.0 °F 49% 30.00 in 10.0 mi NNE 3.5 mph - N/A   Clear
11:53 AM 75.0 °F - 52.0 °F 44% 30.01 in 10.0 mi Variable 3.5 mph - N/A   Clear
12:53 PM 75.9 °F - 55.9 °F 50% 30.00 in 10.0 mi Calm Calm - N/A   Clear
1:53 PM 78.1 °F - 57.9 °F 50% 30.00 in 10.0 mi Calm Calm - N/A   Clear
2:53 PM 80.1 °F 80.6 °F 57.9 °F 47% 29.99 in 10.0 mi Variable 3.5 mph - N/A   Clear
3:53 PM 80.1 °F 80.7 °F 59.0 °F 48% 29.98 in 10.0 mi Calm Calm - N/A   Partly Cloudy
4:53 PM 82.0 °F 82.4 °F 60.1 °F 47% 29.98 in 10.0 mi Calm Calm - N/A   Partly Cloudy
5:53 PM 81.0 °F 81.6 °F 60.1 °F 49% 29.98 in 10.0 mi Variable 6.9 mph - N/A   Partly Cloudy
6:53 PM 80.1 °F 80.9 °F 60.1 °F 50% 29.98 in 10.0 mi NW 4.6 mph - N/A   Clear
7:53 PM 77.0 °F - 61.0 °F 58% 29.99 in 10.0 mi NW 5.8 mph - N/A   Clear
8:53 PM 73.0 °F - 63.0 °F 71% 29.99 in 10.0 mi Calm Calm - N/A   Clear
9:53 PM 71.1 °F - 62.1 °F 73% 30.01 in 10.0 mi Calm Calm - N/A   Clear
10:53 PM 69.1 °F - 63.0 °F 81% 30.02 in 10.0 mi Calm Calm - N/A   Clear
11:53 PM 66.9 °F - 62.1 °F 84% 30.03 in 10.0 mi Calm Calm - N/A   Clear